GTI531 RKSI-ZSPD

Flight info

Callsign GTI531
Flight time 1h 33m
Altitude 38000
Route BOPTA3H BOPTA Z51 BEDES Y711 PONIK A593 LAMEN/K0922F280 A593 AKARA/K0920S0840 A593 PUD
Aircraft B748/H-SDE3FGHIM1M2RWXY/LB1

Departure

Time 2026-05-05 20:30
Airport Incheon International Airport (RKSI)

Arrival

Time 2026-05-05 22:04
Airport Shanghai Pudong International Airport (ZSPD)
Time Latitude Longitude Altitude Speed Heading
2026-05-05 19:55 37.47474 126.45829 42 ft 0 kts 324°
2026-05-05 20:15 37.47420 126.45877 41 ft 0 kts 307°
2026-05-05 20:16 37.47403 126.45888 41 ft 0 kts 237°
2026-05-05 20:20 37.47402 126.45886 42 ft 3 kts 237°
2026-05-05 20:20 37.47358 126.45800 42 ft 19 kts 236°
2026-05-05 20:20 37.47276 126.45659 42 ft 21 kts 233°
2026-05-05 20:20 37.47190 126.45518 42 ft 21 kts 232°
2026-05-05 20:21 37.47111 126.45400 42 ft 14 kts 226°
2026-05-05 20:21 37.47059 126.45326 42 ft 10 kts 234°
2026-05-05 20:21 37.47029 126.45274 41 ft 13 kts 234°
2026-05-05 20:21 37.46931 126.45103 43 ft 23 kts 234°
2026-05-05 20:22 37.46866 126.44985 43 ft 27 kts 235°
2026-05-05 20:22 37.46736 126.44754 43 ft 18 kts 235°
2026-05-05 20:22 37.46712 126.44651 43 ft 19 kts 265°
2026-05-05 20:22 37.46656 126.44515 43 ft 21 kts 234°
2026-05-05 20:23 37.46569 126.44343 43 ft 26 kts 234°
2026-05-05 20:23 37.46453 126.44142 43 ft 30 kts 233°
2026-05-05 20:23 37.46317 126.43923 43 ft 29 kts 238°
2026-05-05 20:23 37.46198 126.43687 43 ft 29 kts 235°
2026-05-05 20:24 37.46080 126.43480 43 ft 31 kts 233°
2026-05-05 20:24 37.45962 126.43274 43 ft 24 kts 236°
2026-05-05 20:24 37.45892 126.43137 43 ft 14 kts 237°
2026-05-05 20:24 37.45882 126.43089 43 ft 4 kts 284°
2026-05-05 20:25 37.45905 126.43052 43 ft 8 kts 320°
2026-05-05 20:25 37.45970 126.42992 43 ft 15 kts 325°
2026-05-05 20:25 37.46077 126.42897 41 ft 22 kts 324°
2026-05-05 20:25 37.46221 126.42764 40 ft 29 kts 323°
2026-05-05 20:26 37.46401 126.42606 43 ft 33 kts 327°
2026-05-05 20:26 37.46590 126.42438 43 ft 29 kts 323°
2026-05-05 20:26 37.46734 126.42311 43 ft 24 kts 325°
2026-05-05 20:26 37.46864 126.42194 43 ft 24 kts 325°
2026-05-05 20:27 37.47008 126.42067 43 ft 27 kts 324°
2026-05-05 20:27 37.47167 126.41924 42 ft 28 kts 324°
2026-05-05 20:27 37.47310 126.41795 43 ft 15 kts 325°
2026-05-05 20:27 37.47345 126.41750 43 ft 3 kts 285°
2026-05-05 20:28 37.47342 126.41719 43 ft 5 kts 252°
2026-05-05 20:28 37.47335 126.41702 42 ft 1 kts 242°
2026-05-05 20:28 37.47322 126.41674 43 ft 7 kts 240°
2026-05-05 20:28 37.47280 126.41609 43 ft 9 kts 209°
2026-05-05 20:29 37.47214 126.41616 42 ft 11 kts 151°
2026-05-05 20:29 37.47181 126.41646 43 ft 0 kts 143°
2026-05-05 20:29 37.47180 126.41647 43 ft 1 kts 143°
2026-05-05 20:29 37.47098 126.41721 43 ft 48 kts 144°
2026-05-05 20:30 37.46576 126.42193 43 ft 132 kts 143°
2026-05-05 20:30 37.45716 126.43028 375 ft 168 kts 141°
2026-05-05 20:30 37.44741 126.43831 1230 ft 176 kts 152°
2026-05-05 20:30 37.43662 126.44581 2065 ft 189 kts 155°
2026-05-05 20:31 37.42476 126.45367 3067 ft 202 kts 155°
2026-05-05 20:31 37.41214 126.46315 3909 ft 220 kts 150°
2026-05-05 20:31 37.39858 126.47406 4626 ft 251 kts 150°
2026-05-05 20:31 37.38305 126.48522 5777 ft 260 kts 162°
2026-05-05 20:32 37.36547 126.49168 7062 ft 267 kts 168°
2026-05-05 20:32 37.34688 126.49759 7882 ft 280 kts 168°
2026-05-05 20:32 37.32800 126.50379 7993 ft 279 kts 167°
2026-05-05 20:32 37.30932 126.51022 7991 ft 278 kts 166°
2026-05-05 20:33 37.29068 126.51660 7997 ft 278 kts 167°
2026-05-05 20:33 37.27253 126.52494 8037 ft 280 kts 154°
2026-05-05 20:33 37.25556 126.53646 8774 ft 280 kts 153°
2026-05-05 20:33 37.23831 126.54835 10057 ft 286 kts 153°
2026-05-05 20:34 37.22039 126.56051 11101 ft 301 kts 153°
2026-05-05 20:34 37.20135 126.57331 11999 ft 320 kts 153°
2026-05-05 20:34 37.18099 126.58705 12728 ft 346 kts 152°
2026-05-05 20:34 37.15866 126.60216 13003 ft 385 kts 152°
2026-05-05 20:35 37.13407 126.61770 13007 ft 398 kts 159°
2026-05-05 20:35 37.10710 126.62566 13008 ft 401 kts 175°
2026-05-05 20:35 37.07918 126.62621 13012 ft 400 kts 182°
2026-05-05 20:35 37.05155 126.62447 13009 ft 401 kts 183°
2026-05-05 20:36 37.02364 126.62340 13006 ft 401 kts 181°
2026-05-05 20:36 36.99567 126.62358 13001 ft 401 kts 180°
2026-05-05 20:36 36.96772 126.62439 13112 ft 401 kts 179°
2026-05-05 20:36 36.93999 126.62440 14154 ft 404 kts 181°
2026-05-05 20:37 36.91150 126.62413 15433 ft 413 kts 180°
2026-05-05 20:37 36.88236 126.62432 16639 ft 420 kts 181°
2026-05-05 20:37 36.85316 126.62270 17778 ft 428 kts 182°
2026-05-05 20:37 36.82318 126.62123 18833 ft 435 kts 181°
2026-05-05 20:38 36.79269 126.61958 19798 ft 441 kts 182°
2026-05-05 20:38 36.76179 126.61774 20714 ft 447 kts 182°
2026-05-05 20:38 36.73061 126.61892 21582 ft 453 kts 172°
2026-05-05 20:38 36.69970 126.62770 22414 ft 458 kts 165°
2026-05-05 20:39 36.66877 126.63835 23206 ft 464 kts 165°
2026-05-05 20:39 36.63744 126.64926 23916 ft 470 kts 166°
2026-05-05 20:39 36.60565 126.65984 24534 ft 474 kts 166°
2026-05-05 20:39 36.57359 126.67036 25137 ft 479 kts 166°
2026-05-05 20:40 36.54119 126.68123 25719 ft 483 kts 165°
2026-05-05 20:40 36.50864 126.69226 26310 ft 487 kts 165°
2026-05-05 20:40 36.47615 126.70314 26934 ft 490 kts 166°
2026-05-05 20:40 36.44326 126.71405 27834 ft 487 kts 166°
2026-05-05 20:41 36.41050 126.72498 28709 ft 485 kts 166°
2026-05-05 20:41 36.37798 126.73588 29610 ft 484 kts 166°
2026-05-05 20:41 36.34552 126.74681 30469 ft 482 kts 167°
2026-05-05 20:41 36.31315 126.75776 31206 ft 481 kts 167°
2026-05-05 20:42 36.28091 126.76866 31946 ft 479 kts 168°
2026-05-05 20:42 36.24875 126.77949 32642 ft 479 kts 168°
2026-05-05 20:42 36.21694 126.79018 33329 ft 478 kts 168°
2026-05-05 20:42 36.18494 126.80094 34005 ft 477 kts 169°
2026-05-05 20:43 36.15252 126.80855 34593 ft 469 kts 180°
2026-05-05 20:43 36.12016 126.80875 35174 ft 462 kts 189°
2026-05-05 20:43 36.08816 126.80545 35744 ft 461 kts 190°
2026-05-05 20:43 36.05620 126.80194 36293 ft 461 kts 190°
2026-05-05 20:44 36.02419 126.79838 36816 ft 461 kts 191°
2026-05-05 20:44 35.99262 126.79496 37322 ft 461 kts 191°
2026-05-05 20:44 35.96061 126.79155 37833 ft 461 kts 191°
2026-05-05 20:44 35.92873 126.78813 38175 ft 458 kts 191°
2026-05-05 20:45 35.86538 126.78122 38171 ft 455 kts 191°
2026-05-05 20:45 35.80232 126.77439 38173 ft 454 kts 191°
2026-05-05 20:46 35.73933 126.76758 38171 ft 454 kts 191°
2026-05-05 20:46 35.67668 126.76082 38171 ft 454 kts 191°
2026-05-05 20:47 35.61377 126.75404 38172 ft 454 kts 191°
2026-05-05 20:47 35.55093 126.74727 38173 ft 453 kts 192°
2026-05-05 20:48 35.48811 126.74055 38182 ft 454 kts 191°
2026-05-05 20:48 35.42506 126.73376 38184 ft 455 kts 191°
2026-05-05 20:49 35.36202 126.72705 38180 ft 454 kts 191°
2026-05-05 20:49 35.29908 126.72030 38180 ft 454 kts 191°
2026-05-05 20:50 35.23621 126.71361 38183 ft 454 kts 191°
2026-05-05 20:50 35.17331 126.70691 38180 ft 452 kts 192°
2026-05-05 20:51 35.11086 126.70028 38180 ft 450 kts 192°
2026-05-05 20:51 35.04854 126.69365 38177 ft 449 kts 192°
2026-05-05 20:52 34.98655 126.68708 38174 ft 449 kts 192°
2026-05-05 20:52 34.92410 126.68046 38169 ft 450 kts 192°
2026-05-05 20:53 34.86201 126.67390 38174 ft 450 kts 192°
2026-05-05 20:53 34.79943 126.66729 38161 ft 450 kts 192°
2026-05-05 20:54 34.73713 126.66072 38181 ft 449 kts 192°
2026-05-05 20:54 34.67473 126.65416 38180 ft 449 kts 192°
2026-05-05 20:55 34.61275 126.64763 38179 ft 449 kts 192°
2026-05-05 20:55 34.55041 126.64111 38181 ft 449 kts 192°
2026-05-05 20:56 34.48813 126.63457 38175 ft 449 kts 192°
2026-05-05 20:56 34.42581 126.62805 38181 ft 449 kts 192°
2026-05-05 20:57 34.36387 126.62159 38188 ft 449 kts 192°
2026-05-05 20:57 34.30153 126.61508 38187 ft 448 kts 192°
2026-05-05 20:58 34.23932 126.60861 38188 ft 448 kts 192°
2026-05-05 20:58 34.17718 126.60213 38184 ft 447 kts 193°
2026-05-05 20:59 34.11560 126.59570 38180 ft 447 kts 193°
2026-05-05 20:59 34.05364 126.58926 38183 ft 447 kts 193°
2026-05-05 21:00 33.99163 126.58282 38167 ft 446 kts 193°
2026-05-05 21:00 33.92980 126.57640 38181 ft 445 kts 193°
2026-05-05 21:01 33.86789 126.56999 38184 ft 445 kts 193°
2026-05-05 21:01 33.80903 126.55332 38190 ft 430 kts 207°
2026-05-05 21:02 33.75309 126.52898 38190 ft 429 kts 207°
2026-05-05 21:02 33.69700 126.50467 38193 ft 429 kts 207°
2026-05-05 21:03 33.64077 126.48033 38184 ft 429 kts 207°
2026-05-05 21:03 33.58457 126.45602 38188 ft 429 kts 207°
2026-05-05 21:04 33.52850 126.43181 38189 ft 428 kts 207°
2026-05-05 21:04 33.47248 126.40765 38188 ft 428 kts 207°
2026-05-05 21:05 33.41642 126.38352 38178 ft 427 kts 208°
2026-05-05 21:05 33.36094 126.35967 38180 ft 425 kts 208°
2026-05-05 21:06 33.30531 126.33577 38181 ft 424 kts 208°
2026-05-05 21:06 33.24974 126.31195 38180 ft 424 kts 208°
2026-05-05 21:07 33.19423 126.28819 38180 ft 423 kts 208°
2026-05-05 21:07 33.14817 126.26848 38180 ft 422 kts 208°
2026-05-05 21:08 33.09274 126.24480 38200 ft 423 kts 208°
2026-05-05 21:08 33.03714 126.22109 38192 ft 424 kts 208°
2026-05-05 21:09 32.98157 126.19739 38198 ft 424 kts 208°
2026-05-05 21:09 32.92644 126.17362 38199 ft 424 kts 208°
2026-05-05 21:10 32.87078 126.14979 38199 ft 424 kts 208°
2026-05-05 21:10 32.81571 126.12619 38190 ft 422 kts 208°
2026-05-05 21:11 32.76032 126.10249 38192 ft 422 kts 208°
2026-05-05 21:11 32.70504 126.07888 38192 ft 422 kts 208°
2026-05-05 21:12 32.64974 126.05529 38188 ft 421 kts 208°
2026-05-05 21:12 32.59492 126.03193 38193 ft 421 kts 208°
2026-05-05 21:13 32.53981 126.00847 38189 ft 421 kts 208°
2026-05-05 21:13 32.48461 125.98502 38192 ft 421 kts 208°
2026-05-05 21:14 32.42958 125.96170 38189 ft 419 kts 208°
2026-05-05 21:14 32.37498 125.93857 38186 ft 419 kts 208°
2026-05-05 21:15 32.32002 125.91534 38188 ft 419 kts 208°
2026-05-05 21:15 32.26520 125.89220 38189 ft 417 kts 209°
2026-05-05 21:16 32.21073 125.86923 38184 ft 415 kts 209°
2026-05-05 21:16 32.15634 125.84630 38182 ft 415 kts 209°
2026-05-05 21:17 32.10197 125.82344 38178 ft 415 kts 209°
2026-05-05 21:17 32.04773 125.80066 38190 ft 413 kts 209°
2026-05-05 21:18 32.02171 125.78742 38195 ft 401 kts 219°
2026-05-05 21:18 31.99982 125.76808 38211 ft 388 kts 231°
2026-05-05 21:18 31.98322 125.74346 38208 ft 381 kts 243°
2026-05-05 21:18 31.97276 125.71492 38213 ft 379 kts 255°
2026-05-05 21:19 31.96683 125.65349 38198 ft 382 kts 265°
2026-05-05 21:19 31.96259 125.59121 38201 ft 381 kts 261°
2026-05-05 21:20 31.95049 125.53048 38182 ft 380 kts 252°
2026-05-05 21:20 31.93601 125.47110 38196 ft 379 kts 256°
2026-05-05 21:21 31.92315 125.41081 38189 ft 380 kts 255°
2026-05-05 21:21 31.90934 125.35077 38190 ft 380 kts 255°
2026-05-05 21:22 31.89594 125.29061 38190 ft 380 kts 255°
2026-05-05 21:22 31.88233 125.23060 38189 ft 382 kts 255°
2026-05-05 21:23 31.86866 125.17008 38188 ft 382 kts 255°
2026-05-05 21:23 31.85499 125.10984 38174 ft 381 kts 255°
2026-05-05 21:24 31.84132 125.04970 38179 ft 379 kts 255°
2026-05-05 21:24 31.82767 124.98973 38190 ft 379 kts 255°
2026-05-05 21:25 31.81485 124.92969 38185 ft 380 kts 256°
2026-05-05 21:25 31.80173 124.86924 38185 ft 381 kts 255°
2026-05-05 21:26 31.78870 124.80916 38178 ft 381 kts 256°
2026-05-05 21:26 31.77552 124.74858 38181 ft 382 kts 255°
2026-05-05 21:27 31.76231 124.68803 38170 ft 382 kts 255°
2026-05-05 21:27 31.74914 124.62777 38167 ft 382 kts 255°
2026-05-05 21:28 31.73588 124.56726 38168 ft 382 kts 255°
2026-05-05 21:28 31.72260 124.50678 38165 ft 382 kts 255°
2026-05-05 21:29 31.70929 124.44634 38174 ft 383 kts 255°
2026-05-05 21:29 31.69592 124.38579 38170 ft 384 kts 255°
2026-05-05 21:30 31.68248 124.32506 38168 ft 384 kts 255°
2026-05-05 21:30 31.66903 124.26438 38175 ft 383 kts 255°
2026-05-05 21:31 31.65563 124.20416 38164 ft 381 kts 255°
2026-05-05 21:31 31.64221 124.14391 38161 ft 382 kts 255°
2026-05-05 21:32 31.62878 124.08383 38154 ft 382 kts 255°
2026-05-05 21:32 31.61525 124.02340 38156 ft 383 kts 255°
2026-05-05 21:33 31.60183 123.96296 38159 ft 383 kts 256°
2026-05-05 21:33 31.58879 123.90259 38166 ft 384 kts 255°
2026-05-05 21:34 31.57542 123.84183 38163 ft 383 kts 256°
2026-05-05 21:34 31.56227 123.78176 37896 ft 379 kts 255°
2026-05-05 21:35 31.55570 123.75190 37424 ft 378 kts 255°
2026-05-05 21:35 31.54912 123.72202 36990 ft 378 kts 255°
2026-05-05 21:35 31.54254 123.69220 36545 ft 378 kts 255°
2026-05-05 21:35 31.53596 123.66237 36097 ft 380 kts 255°
2026-05-05 21:36 31.52931 123.63226 35641 ft 382 kts 255°
2026-05-05 21:36 31.52261 123.60196 35178 ft 384 kts 255°
2026-05-05 21:36 31.51590 123.57166 34707 ft 385 kts 255°
2026-05-05 21:36 31.50915 123.54120 34224 ft 386 kts 255°
2026-05-05 21:37 31.50297 123.51090 33708 ft 388 kts 260°
2026-05-05 21:37 31.50127 123.47915 33209 ft 393 kts 268°
2026-05-05 21:37 31.50302 123.44688 32676 ft 398 kts 271°
2026-05-05 21:37 31.50504 123.41442 32152 ft 402 kts 271°
2026-05-05 21:38 31.50689 123.38155 31599 ft 405 kts 270°
2026-05-05 21:38 31.50871 123.34832 31030 ft 409 kts 271°
2026-05-05 21:38 31.51063 123.31483 30459 ft 413 kts 271°
2026-05-05 21:38 31.51257 123.28143 29801 ft 415 kts 271°
2026-05-05 21:39 31.51448 123.24777 29201 ft 414 kts 270°
2026-05-05 21:39 31.51634 123.21402 28587 ft 416 kts 271°
2026-05-05 21:39 31.51822 123.18011 27929 ft 419 kts 271°
2026-05-05 21:39 31.52015 123.14582 27264 ft 422 kts 271°
2026-05-05 21:40 31.52206 123.11157 26602 ft 420 kts 271°
2026-05-05 21:40 31.52395 123.07739 25937 ft 419 kts 271°
2026-05-05 21:40 31.52581 123.04336 25271 ft 417 kts 271°
2026-05-05 21:40 31.52763 123.00989 24618 ft 415 kts 272°
2026-05-05 21:41 31.52946 122.97625 23961 ft 413 kts 272°
2026-05-05 21:41 31.53128 122.94270 23257 ft 411 kts 272°
2026-05-05 21:41 31.53307 122.90924 22602 ft 411 kts 272°
2026-05-05 21:41 31.53486 122.87589 21946 ft 408 kts 272°
2026-05-05 21:42 31.53663 122.84271 21285 ft 406 kts 272°
2026-05-05 21:42 31.53838 122.80973 20627 ft 403 kts 272°
2026-05-05 21:42 31.54010 122.77708 19977 ft 400 kts 272°
2026-05-05 21:42 31.54178 122.74501 19342 ft 397 kts 272°
2026-05-05 21:43 31.54346 122.71281 18684 ft 393 kts 272°
2026-05-05 21:43 31.54321 122.68107 18016 ft 388 kts 262°
2026-05-05 21:43 31.53601 122.65059 17407 ft 390 kts 248°
2026-05-05 21:43 31.52385 122.62226 16766 ft 388 kts 241°
2026-05-05 21:44 31.51013 122.59514 16113 ft 386 kts 240°
2026-05-05 21:44 31.49702 122.56791 15484 ft 382 kts 244°
2026-05-05 21:44 31.48597 122.53984 14871 ft 376 kts 247°
2026-05-05 21:44 31.47553 122.51172 14259 ft 375 kts 246°
2026-05-05 21:45 31.46451 122.48461 13602 ft 369 kts 244°
2026-05-05 21:45 31.45314 122.45756 12961 ft 372 kts 246°
2026-05-05 21:45 31.44574 122.42871 12318 ft 367 kts 259°
2026-05-05 21:45 31.44206 122.39944 11696 ft 360 kts 264°
2026-05-05 21:46 31.43956 122.37063 11279 ft 348 kts 264°
2026-05-05 21:46 31.43626 122.34333 11146 ft 330 kts 261°
2026-05-05 21:46 31.43404 122.31694 11140 ft 330 kts 274°
2026-05-05 21:46 31.44020 122.29102 11131 ft 331 kts 296°
2026-05-05 21:47 31.45448 122.26994 11134 ft 336 kts 319°
2026-05-05 21:47 31.47497 122.25673 11148 ft 338 kts 341°
2026-05-05 21:47 31.49804 122.25346 11153 ft 341 kts 360°
2026-05-05 21:47 31.52183 122.25443 11149 ft 341 kts
2026-05-05 21:48 31.54534 122.25184 11148 ft 338 kts 345°
2026-05-05 21:48 31.56708 122.24179 11154 ft 337 kts 330°
2026-05-05 21:48 31.58713 122.22749 11149 ft 336 kts 325°
2026-05-05 21:48 31.60643 122.21204 11150 ft 336 kts 323°
2026-05-05 21:49 31.62550 122.19629 11152 ft 335 kts 323°
2026-05-05 21:49 31.64419 122.18049 11145 ft 329 kts 320°
2026-05-05 21:49 31.65818 122.16140 11118 ft 288 kts 296°
2026-05-05 21:49 31.66309 122.14038 11109 ft 252 kts 269°
2026-05-05 21:50 31.65910 122.12165 11114 ft 235 kts 240°
2026-05-05 21:50 31.64739 122.10821 11141 ft 243 kts 210°
2026-05-05 21:50 31.63139 122.10172 11148 ft 243 kts 198°
2026-05-05 21:50 31.61523 122.09586 11143 ft 243 kts 203°
2026-05-05 21:51 31.60000 122.08767 11148 ft 239 kts 212°
2026-05-05 21:51 31.58603 122.07691 10890 ft 245 kts 221°
2026-05-05 21:51 31.57404 122.06231 10412 ft 251 kts 235°
2026-05-05 21:51 31.56435 122.04554 9867 ft 246 kts 238°
2026-05-05 21:52 31.54479 122.01267 8562 ft 245 kts 235°
2026-05-05 21:52 31.53475 121.99685 7942 ft 245 kts 236°
2026-05-05 21:52 31.52461 121.98059 7340 ft 243 kts 236°
2026-05-05 21:53 31.51508 121.96513 7014 ft 232 kts 235°
2026-05-05 21:53 31.50564 121.95005 6643 ft 225 kts 236°
2026-05-05 21:53 31.49683 121.93579 6401 ft 205 kts 235°
2026-05-05 21:53 31.48846 121.92240 6187 ft 203 kts 235°
2026-05-05 21:54 31.48017 121.90906 6006 ft 203 kts 235°
2026-05-05 21:54 31.47185 121.89571 5802 ft 202 kts 235°
2026-05-05 21:54 31.46637 121.88694 5644 ft 201 kts 235°
2026-05-05 21:54 31.45814 121.87368 5452 ft 201 kts 235°
2026-05-05 21:55 31.44991 121.86041 5250 ft 202 kts 234°
2026-05-05 21:55 31.44157 121.84715 5017 ft 201 kts 235°
2026-05-05 21:55 31.43339 121.83399 4835 ft 200 kts 234°
2026-05-05 21:55 31.42521 121.82084 4627 ft 200 kts 234°
2026-05-05 21:56 31.41699 121.80768 4436 ft 200 kts 234°
2026-05-05 21:56 31.40878 121.79455 4234 ft 199 kts 233°
2026-05-05 21:56 31.40072 121.78164 4053 ft 192 kts 233°
2026-05-05 21:56 31.39306 121.76938 3859 ft 181 kts 233°
2026-05-05 21:57 31.38579 121.75774 3687 ft 174 kts 233°
2026-05-05 21:57 31.37863 121.74629 3530 ft 175 kts 233°
2026-05-05 21:57 31.37151 121.73488 3343 ft 171 kts 232°
2026-05-05 21:57 31.36460 121.72386 3183 ft 164 kts 232°
2026-05-05 21:58 31.35602 121.71608 2957 ft 154 kts 193°
2026-05-05 21:58 31.34595 121.71690 3034 ft 149 kts 167°
2026-05-05 21:58 31.33606 121.72000 3084 ft 143 kts 166°
2026-05-05 21:58 31.32654 121.72340 2960 ft 141 kts 165°
2026-05-05 21:59 31.31753 121.72676 2959 ft 135 kts 165°
2026-05-05 21:59 31.30859 121.73013 2988 ft 136 kts 164°
2026-05-05 21:59 31.29974 121.73348 2821 ft 132 kts 164°
2026-05-05 21:59 31.29098 121.73681 2653 ft 132 kts 164°
2026-05-05 22:00 31.28220 121.74014 2476 ft 133 kts 164°
2026-05-05 22:00 31.27346 121.74343 2315 ft 132 kts 163°
2026-05-05 22:00 31.26487 121.74670 2139 ft 129 kts 163°
2026-05-05 22:00 31.25636 121.74993 1974 ft 130 kts 162°
2026-05-05 22:01 31.24785 121.75315 1814 ft 129 kts 163°
2026-05-05 22:01 31.23934 121.75638 1635 ft 128 kts 163°
2026-05-05 22:01 31.23070 121.75967 1466 ft 133 kts 162°
2026-05-05 22:01 31.22215 121.76301 1250 ft 126 kts 162°
2026-05-05 22:02 31.21403 121.76605 1043 ft 123 kts 163°
2026-05-05 22:02 31.20556 121.76918 926 ft 127 kts 163°
2026-05-05 22:02 31.19709 121.77241 785 ft 133 kts 163°
2026-05-05 22:02 31.18856 121.77563 588 ft 129 kts 162°
2026-05-05 22:03 31.18009 121.77895 463 ft 126 kts 164°
2026-05-05 22:03 31.17155 121.78215 297 ft 129 kts 163°
2026-05-05 22:03 31.16313 121.78535 104 ft 129 kts 163°
2026-05-05 22:03 31.15495 121.78838 32 ft 103 kts 162°
2026-05-05 22:04 31.15046 121.79010 34 ft 46 kts 161°
2026-05-05 22:04 31.14747 121.79119 34 ft 44 kts 162°
2026-05-05 22:04 31.14464 121.79228 34 ft 41 kts 163°
2026-05-05 22:04 31.14196 121.79322 31 ft 40 kts 161°
2026-05-05 22:05 31.13937 121.79427 31 ft 38 kts 161°
2026-05-05 22:05 31.13729 121.79504 32 ft 13 kts 162°
2026-05-05 22:05 31.13667 121.79495 32 ft 9 kts 218°
2026-05-05 22:05 31.13631 121.79403 32 ft 17 kts 252°
2026-05-05 22:06 31.13607 121.79270 33 ft 11 kts 282°
2026-05-05 22:06 31.13634 121.79243 33 ft 9 kts 330°
2026-05-05 22:06 31.13725 121.79175 32 ft 22 kts 322°
2026-05-05 22:06 31.13857 121.79016 31 ft 32 kts 315°
2026-05-05 22:07 31.14047 121.78872 30 ft 33 kts 341°
2026-05-05 22:07 31.14211 121.78729 32 ft 23 kts 314°
2026-05-05 22:07 31.14266 121.78634 33 ft 8 kts 266°
2026-05-05 22:07 31.14244 121.78559 33 ft 14 kts 257°
2026-05-05 22:08 31.14234 121.78451 33 ft 12 kts 253°
2026-05-05 22:08 31.14220 121.78400 33 ft 3 kts 252°
2026-05-05 22:08 31.14213 121.78375 33 ft 0 kts 252°